H1 CPF 2 NER 2024 3 20 9 080 01 glonass147 H2 2311401 9147 57517 2024 3 20 0 0 0 2024 3 23 23 45 0 900 1 1 0 0 0 1 H9 10 0 60389 0.00000 0 11714055.875 -13366616.507 18311070.585 10 0 60389 900.00000 0 11198461.202 -11056112.686 20092404.476 10 0 60389 1800.00000 0 10832118.437 -8520542.093 21484131.034 10 0 60389 2700.00000 0 10646284.722 -5819966.455 22459428.588 10 0 60389 3600.00000 0 10661198.154 -3020278.737 22999545.004 10 0 60389 4500.00000 0 10885172.548 -190704.210 23094146.054 10 0 60389 5400.00000 0 11314208.854 2598829.738 22741503.369 10 0 60389 6300.00000 0 11932138.633 5280347.529 21948519.448 10 0 60389 7200.00000 0 12711293.083 7790394.872 20730589.901 10 0 60389 8100.00000 0 13613669.557 10072419.315 19111305.830 10 0 60389 9000.00000 0 14592547.132 12078865.190 17122001.831 10 0 60389 9900.00000 0 15594484.334 13772897.848 14801157.740 10 0 60389 10800.00000 0 16561616.315 15129687.153 12193664.661 10 0 60389 11700.00000 0 17434156.294 16137198.061 9349968.290 10 0 60389 12600.00000 0 18152997.284 16796456.147 6325104.844 10 0 60389 13500.00000 0 18662305.650 17121277.451 3177647.025 10 0 60389 14400.00000 0 18911997.879 17137474.020 -31420.665 10 0 60389 15300.00000 0 18859996.325 16881568.308 -3239876.260 10 0 60389 16200.00000 0 18474168.413 16399070.095 -6385462.109 10 0 60389 17100.00000 0 17733866.608 15742388.008 -9407091.068 10 0 60389 18000.00000 0 16631002.759 14968463.278 -12246033.614 10 0 60389 18900.00000 0 15170609.728 14136225.293 -14847062.611 10 0 60389 19800.00000 0 13370864.512 13303976.263 -17159533.027 10 0 60389 20700.00000 0 11262569.665 12526815.610 -19138375.051 10 0 60389 21600.00000 0 8888112.559 11854213.268 -20744980.633 10 0 60389 22500.00000 0 6299944.050 11327834.990 -21947965.568 10 0 60389 23400.00000 0 3558638.493 10979712.305 -22723791.550 10 0 60389 24300.00000 0 730614.780 10830835.311 -23057235.431 10 0 60389 25200.00000 0 -2114387.442 10890228.672 -22941695.863 10 0 60389 26100.00000 0 -4905971.675 11154550.747 -22379330.693 10 0 60389 27000.00000 0 -7575777.800 11608233.595 -21381021.833 10 0 60389 27900.00000 0 -10060092.349 12224158.555 -19966167.728 10 0 60389 28800.00000 0 -12302266.815 12964839.232 -18162307.058 10 0 60389 29700.00000 0 -14254842.934 13784061.952 -16004580.738 10 0 60389 30600.00000 0 -15881296.171 14628914.099 -13535042.640 10 0 60389 31500.00000 0 -17157324.675 15442113.940 -10801832.716 10 0 60389 32400.00000 0 -18071630.329 16164542.550 -7858229.145 10 0 60389 33300.00000 0 -18626160.127 16737869.626 -4761598.761 10 0 60389 34200.00000 0 -18835799.119 17107160.944 -1572267.263 10 0 60389 35100.00000 0 -18727529.615 17223356.013 1647667.532 10 0 60389 36000.00000 0 -18339094.123 17045510.181 4835555.067 10 0 60389 36900.00000 0 -17717220.482 16542705.717 7929419.049 10 0 60389 37800.00000 0 -16915486.171 15695550.799 10869167.219 10 0 60389 38700.00000 0 -15991913.697 14497203.109 13597759.726 10 0 60389 39600.00000 0 -15006399.925 12953875.166 16062313.080 10 0 60389 40500.00000 0 -14018088.617 11084800.591 18215118.525 10 0 60389 41400.00000 0 -13082797.131 8921663.139 20014555.734 10 0 60389 42300.00000 0 -12250605.287 6507512.834 21425885.207 10 0 60389 43200.00000 0 -11563706.906 3895214.599 22421905.416 10 0 60389 44100.00000 0 -11054613.000 1145493.867 22983463.546 10 0 60389 45000.00000 0 -10744780.514 -1675340.091 23099811.491 10 0 60389 45900.00000 0 -10643722.596 -4497899.603 22768801.636 10 0 60389 46800.00000 0 -10748636.277 -7252350.239 21996919.741 10 0 60389 47700.00000 0 -11044562.130 -9871061.288 20799154.985 10 0 60389 48600.00000 0 -11505068.546 -12291167.111 19198709.960 10 0 60389 49500.00000 0 -12093431.828 -14456935.148 17226555.972 10 0 60389 50400.00000 0 -12764262.909 -16321844.166 14920841.621 10 0 60389 51300.00000 0 -13465513.102 -17850288.054 12326165.153 10 0 60389 52200.00000 0 -14140775.598 -19018835.594 9492723.406 10 0 60389 53100.00000 0 -14731786.923 -19816994.567 6475352.606 10 0 60389 54000.00000 0 -15181024.006 -20247448.801 3332478.307 10 0 60389 54900.00000 0 -15434288.130 -20325758.343 124993.717 10 0 60389 55800.00000 0 -15443167.059 -20079535.070 -3084912.676 10 0 60389 56700.00000 0 -15167271.305 -19547127.939 -6234958.022 10 0 60389 57600.00000 0 -14576149.414 -18775872.556 -9263971.571 10 0 60389 58500.00000 0 -13650800.228 -17819978.190 -12113083.206 10 0 60389 59400.00000 0 -12384716.620 -16738140.776 -14726870.744 10 0 60389 60300.00000 0 -10784414.659 -15590982.157 -17054443.283 10 0 60389 61200.00000 0 -8869423.646 -14438423.507 -19050438.963 10 0 60389 62100.00000 0 -6671735.034 -13337103.751 -20675917.105 10 0 60389 63000.00000 0 -4234731.092 -12337952.208 -21899126.714 10 0 60389 63900.00000 0 -1611636.074 -11484018.298 -22696135.685 10 0 60389 64800.00000 0 1136447.027 -10808650.443 -23051307.787 10 0 60389 65700.00000 0 3942833.523 -10334101.610 -22957617.448 10 0 60389 66600.00000 0 6737792.880 -10070620.922 -22416795.563 10 0 60389 67500.00000 0 9451218.101 -10016070.219 -21439302.838 10 0 60389 68400.00000 0 12015317.516 -10156082.090 -20044130.650 10 0 60389 69300.00000 0 14367216.523 -10464752.850 -18258432.844 10 0 60389 70200.00000 0 16451360.499 -10905841.070 -16116995.391 10 0 60389 71100.00000 0 18221618.275 -11434420.522 -13661554.147 10 0 60389 72000.00000 0 19642998.115 -11998916.918 -10939974.270 10 0 60389 72900.00000 0 20692904.553 -12543441.224 -8005307.785 10 0 60389 73800.00000 0 21361883.979 -13010319.553 -4914748.424 10 0 60389 74700.00000 0 21653828.645 -13342711.198 -1728505.200 10 0 60389 75600.00000 0 21585631.918 -13487202.603 1491382.155 10 0 60389 76500.00000 0 21186311.047 -13396266.283 4682261.552 10 0 60389 77400.00000 0 20495636.333 -13030479.679 7782095.753 10 0 60389 78300.00000 0 19562326.503 -12360409.495 10730673.537 10 0 60389 79200.00000 0 18441888.197 -11368081.603 13470780.628 10 0 60389 80100.00000 0 17194192.190 -10047974.557 15949307.291 10 0 60389 81000.00000 0 15880889.515 -8407495.100 18118271.330 10 0 60389 81900.00000 0 14562776.725 -6466916.032 19935737.296 10 0 60389 82800.00000 0 13297220.961 -4258779.383 21366615.126 10 0 60389 83700.00000 0 12135752.266 -1826790.004 22383324.157 10 0 60389 84600.00000 0 11121922.914 775754.357 22966311.187 10 0 60389 85500.00000 0 10289521.897 3487931.565 23104414.129 10 0 60390 0.00000 0 9661217.655 6243480.979 22795065.686 10 0 60390 900.00000 0 9247683.780 8973314.532 22044333.995 10 0 60390 1800.00000 0 9047243.553 11608146.712 20866800.686 10 0 60390 2700.00000 0 9046045.855 14081141.071 19285278.445 10 0 60390 3600.00000 0 9218765.229 16330461.734 17330373.645 10 0 60390 4500.00000 0 9529796.097 18301627.271 15039901.818 10 0 60390 5400.00000 0 9934891.270 19949570.547 12458166.325 10 0 60390 6300.00000 0 10383176.478 21240320.174 9635112.950 10 0 60390 7200.00000 0 10819456.944 22152234.423 6625375.568 10 0 60390 8100.00000 0 11186719.720 22676736.588 3487230.094 10 0 60390 9000.00000 0 11428726.981 22818521.170 281475.841 10 0 60390 9900.00000 0 11492591.310 22595221.942 -2929734.825 10 0 60390 10800.00000 0 11331224.267 22036555.317 -6084096.489 10 0 60390 11700.00000 0 10905554.368 21182974.247 -9120357.347 10 0 60390 12600.00000 0 10186419.840 20083888.512 -11979509.087 10 0 60390 13500.00000 0 9156054.772 18795525.555 -14605936.689 10 0 60390 14400.00000 0 7809104.059 17378521.314 -16948505.368 10 0 60390 15300.00000 0 6153122.162 15895342.111 -18961562.983 10 0 60390 16200.00000 0 4208532.292 14407645.966 -20605837.765 10 0 60390 17100.00000 0 2008045.281 12973694.487 -21849213.265 10 0 60390 18000.00000 0 -404439.759 11645924.513 -22667364.689 10 0 60390 18900.00000 0 -2975409.009 10468782.074 -23044243.583 10 0 60390 19800.00000 0 -5643717.598 9476910.284 -22972400.728 10 0 60390 20700.00000 0 -8342901.693 8693767.846 -22453140.284 10 0 60390 21600.00000 0 -11003723.256 8130736.679 -21496501.578 10 0 60390 22500.00000 0 -13556841.652 7786756.400 -20121068.303 10 0 60390 23400.00000 0 -15935500.540 7648501.043 -18353608.426 10 0 60390 24300.00000 0 -18078117.630 7691090.203 -16228551.522 10 0 60390 25200.00000 0 -19930668.724 7879303.954 -13787313.659 10 0 60390 26100.00000 0 -21448765.959 8169249.282 -11077483.182 10 0 60390 27000.00000 0 -22599343.095 8510406.360 -8151883.770 10 0 60390 27900.00000 0 -23361877.311 8847966.624 -5067533.774 10 0 60390 28800.00000 0 -23729096.766 9125362.159 -1884523.175 10 0 60390 29700.00000 0 -23707145.135 9286877.681 1335168.752 10 0 60390 30600.00000 0 -23315197.557 9280233.054 4528890.790 10 0 60390 31500.00000 0 -22584545.831 9059025.791 7634547.181 10 0 60390 32400.00000 0 -21557193.189 8584929.253 10591810.196 10 0 60390 33300.00000 0 -20284019.659 7829553.083 13343293.572 10 0 60390 34200.00000 0 -18822596.874 6775887.106 15835663.726 10 0 60390 35100.00000 0 -17234745.500 5419267.919 18020667.311 10 0 60390 36000.00000 0 -15583938.672 3767827.764 19856055.871 10 0 60390 36900.00000 0 -13932660.620 1842407.144 21306390.674 10 0 60390 37800.00000 0 -12339830.737 -324064.931 22343713.524 10 0 60390 38700.00000 0 -10858399.921 -2687697.200 22948072.124 10 0 60390 39600.00000 0 -9533218.262 -5195222.218 23107891.367 10 0 60390 40500.00000 0 -8399261.356 -7785976.926 22820184.813 10 0 60390 41400.00000 0 -7480287.420 -10394196.452 22090603.399 10 0 60390 42300.00000 0 -6787979.406 -12951527.288 20933321.174 10 0 60390 43200.00000 0 -6321606.315 -15389657.160 19370760.592 10 0 60390 44100.00000 0 -6068216.584 -17642954.243 17433162.465 10 0 60390 45000.00000 0 -6003354.611 -19651007.842 15158008.323 10 0 60390 45900.00000 0 -6092270.058 -21360966.574 12589305.417 10 0 60390 46800.00000 0 -6291569.222 -22729578.074 9776746.990 10 0 60390 47700.00000 0 -6551239.494 -23724846.165 6774762.834 10 0 60390 48600.00000 0 -6816962.292 -24327236.836 3641477.256 10 0 60390 49500.00000 0 -7032617.602 -24530382.706 437593.503 10 0 60390 50400.00000 0 -7142874.923 -24341256.148 -2774774.577 10 0 60390 51300.00000 0 -7095761.413 -23779803.158 -5933301.604 10 0 60390 52200.00000 0 -6845098.493 -22878052.484 -8976657.522 10 0 60390 53100.00000 0 -6352703.271 -21678736.448 -11845698.818 10 0 60390 54000.00000 0 -5590260.608 -20233480.492 -14484620.748 10 0 60390 54900.00000 0 -4540785.132 -18600636.659 -16842047.813 10 0 60390 55800.00000 0 -3199609.538 -16842851.471 -18872040.690 10 0 60390 56700.00000 0 -1574855.223 -15024469.971 -20534999.456 10 0 60390 57600.00000 0 312636.932 -13208884.779 -21798444.836 10 0 60390 58500.00000 0 2429915.143 -11455941.596 -22637661.595 10 0 60390 59400.00000 0 4733041.336 -9819510.231 -23036190.848 10 0 60390 60300.00000 0 7168686.629 -8345323.439 -22986161.025 10 0 60390 61200.00000 0 9676132.426 -7069174.620 -22488450.364 10 0 60390 62100.00000 0 12189594.503 -6015550.280 -21552677.126 10 0 60390 63000.00000 0 14640773.595 -5196754.792 -20197017.169 10 0 60390 63900.00000 0 16961526.002 -4612564.110 -18447851.954 10 0 60390 64800.00000 0 19086542.396 -4250422.571 -16339253.559 10 0 60390 65700.00000 0 20955922.392 -4086173.717 -13912316.654 10 0 60390 66600.00000 0 22517536.543 -4085293.258 -11214350.655 10 0 60390 67500.00000 0 23729076.377 -4204570.701 -8297948.283 10 0 60390 68400.00000 0 24559706.241 -4394166.983 -5219949.440 10 0 60390 69300.00000 0 24991247.689 -4599959.261 -2040321.647 10 0 60390 70200.00000 0 25018847.114 -4766071.841 1179019.953 10 0 60390 71100.00000 0 24651099.495 -4837484.348 4375428.801 10 0 60390 72000.00000 0 23909624.280 -4762605.219 7486754.369 10 0 60390 72900.00000 0 22828112.836 -4495700.397 10452555.983 10 0 60390 73800.00000 0 21450889.171 -3999073.712 13215278.693 10 0 60390 74700.00000 0 19831046.044 -3244906.392 15721367.992 10 0 60390 75600.00000 0 18028236.116 -2216678.029 17922301.911 10 0 60390 76500.00000 0 16106211.773 -910109.340 19775521.094 10 0 60390 77400.00000 0 14130217.120 666412.590 21245239.811 10 0 60390 78300.00000 0 12164341.131 2491944.127 22303123.588 10 0 60390 79200.00000 0 10268941.790 4533625.221 22928821.866 10 0 60390 80100.00000 0 8498247.440 6747823.222 23110346.933 10 0 60390 81000.00000 0 6898233.692 9081733.167 22844293.253 10 0 60390 81900.00000 0 5504862.374 11475368.736 22135894.083 10 0 60390 82800.00000 0 4342753.900 13863862.292 20998915.089 10 0 60390 83700.00000 0 3424346.456 16179979.838 19455387.301 10 0 60390 84600.00000 0 2749575.391 18356748.088 17535184.443 10 0 60390 85500.00000 0 2306084.922 20330086.063 15275452.215 10 0 60391 0.00000 0 2069962.448 22041333.223 12719899.920 10 0 60391 900.00000 0 2006964.229 23439571.027 9917965.484 10 0 60391 1800.00000 0 2074181.244 24483639.872 6923872.325 10 0 60391 2700.00000 0 2222075.096 25143770.798 3795590.474 10 0 60391 3600.00000 0 2396799.012 25402761.465 593724.316 10 0 60391 4500.00000 0 2542706.351 25256647.776 -2619653.681 10 0 60391 5400.00000 0 2604941.027 24714842.113 -5782201.034 10 0 60391 6300.00000 0 2532000.399 23799731.374 -8832512.234 10 0 60391 7200.00000 0 2278161.880 22545750.495 -11711311.212 10 0 60391 8100.00000 0 1805669.871 20997969.178 -14362605.962 10 0 60391 9000.00000 0 1086589.296 19210249.991 -16734782.495 10 0 60391 9900.00000 0 104245.772 17243054.218 -18781616.297 10 0 60391 10800.00000 0 -1145810.368 15160986.788 -20463181.021 10 0 60391 11700.00000 0 -2655359.101 13030182.779 -21746636.054 10 0 60391 12600.00000 0 -4403605.789 10915644.857 -22606876.941 10 0 60391 13500.00000 0 -6357814.604 8878643.222 -23027035.293 10 0 60391 14400.00000 0 -8474455.754 6974287.100 -22998817.783 10 0 60391 15300.00000 0 -10700820.122 5249369.769 -22522676.915 10 0 60391 16200.00000 0 -12977034.969 3740577.541 -21607809.648 10 0 60391 17100.00000 0 -15238397.163 2473137.844 -20271983.285 10 0 60391 18000.00000 0 -17417926.587 1459962.960 -18541191.601 10 0 60391 18900.00000 0 -19449032.764 701324.916 -16449147.568 10 0 60391 19800.00000 0 -21268182.655 185074.422 -14036622.495 10 0 60391 20700.00000 0 -22817457.151 -112606.483 -11350644.630 10 0 60391 21600.00000 0 -24046888.434 -225951.243 -8443573.314 10 0 60391 22500.00000 0 -24916479.502 -197909.701 -5372067.475 10 0 60391 23400.00000 0 -25397820.690 -78076.816 -2195969.581 10 0 60391 24300.00000 0 -25475235.270 79661.219 1022871.985 10 0 60391 25200.00000 0 -25146406.355 219661.896 4221817.945 10 0 60391 26100.00000 0 -24422459.585 287133.290 7338665.633 10 0 60391 27000.00000 0 -23327499.269 230701.163 10312864.035 10 0 60391 27900.00000 0 -21897618.882 4826.589 13086692.047 10 0 60391 28800.00000 0 -20179428.945 -428028.699 15606376.659 10 0 60391 29700.00000 0 -18228165.388 -1095580.886 17823129.513 10 0 60391 30600.00000 0 -16105458.716 -2014323.241 19694082.319 10 0 60391 31500.00000 0 -13876857.949 -3188604.468 21183104.008 10 0 60391 32400.00000 0 -11609212.860 -4610224.528 22261485.123 10 0 60391 33300.00000 0 -9368023.189 -6258564.563 22908477.758 10 0 60391 34200.00000 0 -7214864.266 -8101245.302 23111682.144 10 0 60391 35100.00000 0 -5204994.618 -10095286.665 22867273.837 10 0 60391 36000.00000 0 -3385243.191 -12188720.744 22180068.310 10 0 60391 36900.00000 0 -1792262.007 -14322591.881 21063422.451 10 0 60391 37800.00000 0 -451214.847 -16433261.809 19538975.233 10 0 60391 38700.00000 0 625045.379 -18454925.425 17636232.425 10 0 60391 39600.00000 0 1436277.887 -20322233.990 15392002.817 10 0 60391 40500.00000 0 1994622.592 -21972918.048 12849695.976 10 0 60391 41400.00000 0 2323846.431 -23350302.055 10058493.933 10 0 60391 42300.00000 0 2458099.417 -24405606.765 7072411.602 10 0 60391 43200.00000 0 2440232.637 -25099943.801 3949262.868 10 0 60391 44100.00000 0 2319748.686 -25405919.063 749551.221 10 0 60391 45000.00000 0 2150470.561 -25308777.506 -2464694.424 10 0 60391 45900.00000 0 1988027.016 -24807040.501 -5631116.811 10 0 60391 46800.00000 0 1887260.451 -23912607.922 -8688237.440 10 0 60391 47700.00000 0 1899667.050 -22650319.328 -11576650.290 10 0 60391 48600.00000 0 2070977.888 -21056991.183 -14240178.792 10 0 60391 49500.00000 0 2438984.225 -19179969.081 -16626973.213 10 0 60391 50400.00000 0 3031700.184 -17075254.415 -18690526.563 10 0 60391 51300.00000 0 3865942.113 -14805282.921 -20390588.655 10 0 60391 52200.00000 0 4946386.493 -12436447.354 -21693959.903 10 0 60391 53100.00000 0 6265148.227 -10036467.497 -22575148.684 10 0 60391 54000.00000 0 7801899.174 -7671717.284 -23016878.793 10 0 60391 54900.00000 0 9524523.982 -5404620.735 -23010436.424 10 0 60391 55800.00000 0 11390287.458 -3291225.743 -22555849.221 10 0 60391 56700.00000 0 13347465.876 -1379057.239 -21661893.289 10 0 60391 57600.00000 0 15337374.824 294660.375 -20345927.428 10 0 60391 58500.00000 0 17296709.043 1704337.181 -18633557.357 10 0 60391 59400.00000 0 19160096.170 2836852.594 -16558136.144 10 0 60391 60300.00000 0 20862756.987 3691856.725 -14160110.487 10 0 60391 61200.00000 0 22343159.783 4281526.648 -11486225.747 10 0 60391 62100.00000 0 23545556.658 4629789.235 -8588605.702 10 0 60391 63000.00000 0 24422294.318 4771045.059 -5523725.673 10 0 60391 63900.00000 0 24935801.559 4748449.175 -2351300.078 10 0 60391 64800.00000 0 25060169.431 4611823.554 866892.724 10 0 60391 65700.00000 0 24782257.574 4415291.536 4068224.172 10 0 60391 66600.00000 0 24102280.529 4214736.359 7190442.913 10 0 60391 67500.00000 0 23033850.112 4065192.997 10172890.969 10 0 60391 68400.00000 0 21603473.096 4018284.925 12957684.277 10 0 60391 69300.00000 0 19849526.499 4119815.024 15490834.274 10 0 60391 70200.00000 0 17820754.647 4407612.754 17723288.863 10 0 60391 71100.00000 0 15574351.966 4909728.368 19611873.166 10 0 60391 72000.00000 0 13173712.373 5643049.826 21120112.774 10 0 60391 72900.00000 0 10685939.433 6612400.056 22218924.900 10 0 60391 73800.00000 0 8179220.726 7810151.856 22887165.577 10 0 60391 74700.00000 0 5720174.871 9216376.130 23112023.862 10 0 60391 75600.00000 0 3371280.130 10799517.089 22889256.874 10 0 60391 76500.00000 0 1188489.604 12517566.387 22223262.310 10 0 60391 77400.00000 0 -780869.904 14319687.745 21126987.836 10 0 60391 78300.00000 0 -2499830.272 16148225.247 19621679.473 10 0 60391 79200.00000 0 -3943075.727 17941012.815 17736473.711 10 0 60391 80100.00000 0 -5097745.790 19633889.962 15507840.732 10 0 60391 81000.00000 0 -5963715.553 21163320.314 12978888.596 10 0 60391 81900.00000 0 -6553342.682 22469004.943 10198540.698 10 0 60391 82800.00000 0 -6890692.385 23496382.317 7220601.179 10 0 60391 83700.00000 0 -7010273.081 24198911.021 4102725.129 10 0 60391 84600.00000 0 -6955335.858 24540039.845 905312.367 10 0 60391 85500.00000 0 -6775809.012 24494782.401 -2309654.612 10 0 60392 0.00000 0 -6525954.427 24050829.512 -5479806.386 10 0 60392 900.00000 0 -6261844.335 23209151.230 -8543594.906 10 0 60392 1800.00000 0 -6038765.321 21984062.393 -11441486.684 10 0 60392 2700.00000 0 -5908659.077 20402746.545 -14117123.212 10 0 60392 3600.00000 0 -5917709.007 18504256.945 -16518421.442 10 0 60392 4500.00000 0 -6104175.496 16338034.785 -18598594.099 10 0 60392 5400.00000 0 -6496572.628 13962005.238 -20317069.105 10 0 60392 6300.00000 0 -7112264.894 11440329.859 -21640289.586 10 0 60392 7200.00000 0 -7956544.898 8840908.488 -22542378.158 10 0 60392 8100.00000 0 -9022232.791 6232734.477 -23005651.893 10 0 60392 9000.00000 0 -10289816.164 3683213.439 -23020977.253 10 0 60392 9900.00000 0 -11728126.218 1255557.406 -22587957.365 10 0 60392 10800.00000 0 -13295523.163 -993636.729 -21714947.380 10 0 60392 11700.00000 0 -14941542.144 -3016523.288 -20418897.015 10 0 60392 12600.00000 0 -16608931.090 -4775769.149 -18725022.874 10 0 60392 13500.00000 0 -18235995.085 -6245866.852 -16666316.609 10 0 60392 14400.00000 0 -19759148.457 -7413945.030 -14282898.403 10 0 60392 15300.00000 0 -21115566.679 -8280042.994 -11621228.507 10 0 60392 16200.00000 0 -22245825.684 -8856839.194 -8733192.669 10 0 60392 17100.00000 0 -23096416.560 -9168846.613 -5675079.980 10 0 60392 18000.00000 0 -23622028.813 -9251110.889 -2506474.077 10 0 60392 18900.00000 0 -23787505.344 -9147468.266 710919.512 10 0 60392 19800.00000 0 -23569386.305 -8908439.144 3914485.779 10 0 60392 20700.00000 0 -22956976.808 -8588848.403 7041927.537 10 0 60392 21600.00000 0 -21952893.829 -8245275.043 10032482.668 10 0 60392 22500.00000 0 -20573069.960 -7933440.503 12828106.900 10 0 60392 23400.00000 0 -18846214.747 -7705647.125 15374598.710 10 0 60392 24300.00000 0 -16812757.178 -7608375.508 17622644.643 10 0 60392 25200.00000 0 -14523314.494 -7680142.195 19528765.301 10 0 60392 26100.00000 0 -12036752.037 -7949707.595 21056144.643 10 0 60392 27000.00000 0 -9417915.372 -8434708.873 22175327.847 10 0 60392 27900.00000 0 -6735128.968 -9140774.479 22864775.751 10 0 60392 28800.00000 0 -4057564.814 -10061156.649 23111266.689 10 0 60392 29700.00000 0 -1452589.065 -11176896.735 22910139.403 10 0 60392 30600.00000 0 1016804.780 -12457516.150 22265373.544 10 0 60392 31500.00000 0 3294371.601 -13862204.209 21189506.991 10 0 60392 32400.00000 0 5332702.797 -15341453.726 19703391.992 10 0 60392 33300.00000 0 7094942.306 -16839077.006 17835794.717 10 0 60392 34200.00000 0 8556061.070 -18294519.126 15622845.475 10 0 60392 35100.00000 0 9703638.611 -19645373.177 13107349.331 10 0 60392 36000.00000 0 10538120.428 -20829993.564 10337969.337 10 0 60392 36900.00000 0 11072541.309 -21790099.069 7368296.936 10 0 60392 37800.00000 0 11331726.633 -22473257.445 4255826.289 10 0 60392 38700.00000 0 11351005.256 -22835147.703 1060851.262 10 0 60392 39600.00000 0 11174487.926 -22841505.030 -2154694.474 10 0 60392 40500.00000 0 10852983.396 -22469666.002 -5328432.381 10 0 60392 41400.00000 0 10441639.776 -21709648.093 -8398746.243 10 0 60392 42300.00000 0 9997410.447 -20564716.576 -11305978.221 10 0 60392 43200.00000 0 9576451.548 -19051413.245 -13993590.396 10 0 60392 44100.00000 0 9231561.279 -17199043.792 -16409268.878 10 0 60392 45000.00000 0 9009769.788 -15048643.403 -18505948.478 10 0 60392 45900.00000 0 8950182.378 -12651462.122 -20242737.438 10 0 60392 46800.00000 0 9082168.278 -10067031.774 -21585723.569 10 0 60392 47700.00000 0 9423972.833 -7360894.032 -22508645.400 10 0 60392 48600.00000 0 9981813.187 -4602083.609 -22993414.621 10 0 60392 49500.00000 0 10749497.141 -1860471.016 -23030478.925 10 0 60392 50400.00000 0 11708582.721 795924.514 -22619017.512 10 0 60392 51300.00000 0 12829073.040 3303539.921 -21766964.797 10 0 60392 52200.00000 0 14070618.189 5605682.330 -20490861.273 10 0 60392 53100.00000 0 15384174.213 7654651.332 -18815533.934 10 0 60392 54000.00000 0 16714049.540 9413480.908 -16773612.166 10 0 60392 54900.00000 0 18000252.515 10857228.454 -14404888.413 10 0 60392 55800.00000 0 19181040.558 11973757.487 -11755536.211 10 0 60392 56700.00000 0 20195562.692 12763982.172 -8877201.298 10 0 60392 57600.00000 0 20986482.980 13241564.812 -5825984.179 10 0 60392 58500.00000 0 21502473.150 13432080.730 -2661335.042 10 0 60392 59400.00000 0 21700468.309 13371687.805 555116.322 10 0 60392 60300.00000 0 21547589.868 13105358.980 3760771.520 10 0 60392 61200.00000 0 21022654.136 12684754.581 6893290.639 10 0 60392 62100.00000 0 20117202.985 12165826.396 9891810.485 10 0 60392 63000.00000 0 18836013.428 11606256.493 12698129.514 10 0 60392 63900.00000 0 17197065.267 11062840.258 15257836.011 10 0 60392 64800.00000 0 15230968.861 10588924.916 17521357.707 10 0 60392 65700.00000 0 12979877.717 10232011.801 19444912.993 10 0 60392 66600.00000 0 10495931.959 10031623.106 20991346.242 10 0 60392 67500.00000 0 7839297.968 10017522.194 22130832.353 10 0 60392 68400.00000 0 5075885.733 10208361.262 22841438.405 10 0 60392 69300.00000 0 2274838.314 10610812.083 23109533.077 10 0 60392 70200.00000 0 -494103.357 11219215.246 22930037.400 10 0 60392 71100.00000 0 -3163252.501 12015761.880 22306513.188 10 0 60392 72000.00000 0 -5669537.142 12971199.825 21251088.261 10 0 60392 72900.00000 0 -7956865.262 14046034.781 19784220.338 10 0 60392 73800.00000 0 -9978198.432 15192176.633 17934304.039 10 0 60392 74700.00000 0 -11697249.772 16354962.886 15737128.152 10 0 60392 75600.00000 0 -13089737.431 17475475.594 13235192.755 10 0 60392 76500.00000 0 -14144142.777 18493055.895 10476898.286 10 0 60392 77400.00000 0 -14861942.676 19347911.850 7515621.023 10 0 60392 78300.00000 0 -15257306.732 19983711.026 4408691.619 10 0 60392 79200.00000 0 -15356272.398 20350049.487 1216295.305 10 0 60392 80100.00000 0 -15195432.464 20404693.452 -1999685.806 10 0 60392 81000.00000 0 -14820189.815 20115498.925 -5176866.532 10 0 60392 81900.00000 0 -14282652.565 19461927.550 -8253565.813 10 0 60392 82800.00000 0 -13639257.940 18436093.526 -11170003.873 10 0 60392 83700.00000 0 -12948224.956 17043295.739 -13869465.976 10 0 60392 84600.00000 0 -12266943.400 15302010.712 -16299409.827 10 0 60392 85500.00000 0 -11649409.647 13243344.498 -18412494.560 99